Flag for Poland Weather past 2 weeks in Kraków, Poland

Now
19 °F

Passing clouds.


Feels Like: 9 °F
Forecast: 15 / 24 °F
Wind: 8 mph from Northwest

Location: Krakow Airport

Current Time: Dec 28, 2014 at 7:00:27 PM

Latest Report: Dec 28, 2014 at 6:30 PM


Visibility: N/A

Pressure: 30.12 "Hg

Humidity: 86%

Dew point: 16 °F

Location of KrakówLocation

Historic Weather in Kraków — Graph

°F

Kraków temperature yesterday

Maximum temperature yesterday: 23 °F (at 12:00 AM)
Minimum temperature yesterday: 12 °F (at 5:30 AM)
Average temperature yesterday: 16 °F

Past Weeks' High & Low Weather Summary

 TemperatureHumidityPressure
High55 °F (Dec 19, 11:00 AM)100% (Dec 15, 2:30 AM)30.21 "Hg (Dec 15, 2:30 AM)
Low12 °F (Dec 27, 5:30 AM)46% (Dec 24, 2:30 PM)29.80 "Hg (Dec 16, 8:00 PM)
Average38 °F85%29.96 "Hg
* Reported Dec 13 6:00 PM — Dec 28 6:00 PM, Kraków, Weather by CustomWeather, © 2014

Note: Actual official high and low records may vary slightly from our data, if they occured in-between our weather recording intervals... More about our weather records

Advertising

Kraków weather history for previous 24 hours

 ConditionsComfort  
Time TempWeatherWind HumidityBarometerVisibility
6:00 PM
Dec 28
19 °FPassing clouds.9 mph86%30.12 "HgN/A
5:30 PM21 °FLight snow. Passing clouds.6 mph80%30.09 "HgN/A
5:00 PM21 °FPassing clouds.9 mph86%30.09 "HgN/A
4:30 PM21 °FPassing clouds.6 mph86%30.07 "HgN/A
4:00 PM21 °FPassing clouds.8 mph86%30.04 "HgN/A
3:30 PM21 °FPartly sunny.9 mph86%30.04 "HgN/A
3:00 PM21 °FPartly sunny.10 mph86%30.01 "HgN/A
2:30 PM21 °FPartly sunny.9 mph86%30.01 "HgN/A
2:00 PM23 °FPartly sunny.8 mph86%30.01 "HgN/A
1:30 PM23 °FPartly sunny.8 mph86%29.98 "Hg5 mi
1:00 PM23 °FBroken clouds.13 mph86%29.98 "Hg5 mi
12:30 PM23 °FPartly sunny.9 mph86%29.98 "Hg5 mi
12:00 PM23 °FLight snow. Partly sunny.9 mph86%29.98 "Hg4 mi
11:30 AM23 °FLight snow. Partly sunny.9 mph100%29.98 "Hg4 mi
11:00 AM23 °FLight snow. Broken clouds.8 mph93%29.95 "Hg4 mi
10:30 AM23 °FLight snow. Partly sunny.10 mph93%29.95 "Hg5 mi
10:00 AM23 °FPartly sunny.8 mph93%29.95 "HgN/A
9:30 AM25 °FPartly sunny.9 mph86%29.95 "HgN/A
9:00 AM25 °FPartly sunny.6 mph86%29.92 "HgN/A
8:30 AM23 °FPartly sunny.6 mph86%29.92 "HgN/A
8:00 AM23 °FPartly sunny.7 mph86%29.89 "Hg5 mi
7:30 AM23 °FPassing clouds.7 mph86%29.89 "Hg5 mi
7:00 AM23 °FPassing clouds.10 mph86%29.86 "Hg5 mi
6:30 AM23 °FPassing clouds.10 mph86%29.86 "Hg5 mi
6:00 AM23 °FPassing clouds.9 mph86%29.83 "Hg5 mi
5:30 AM23 °FPassing clouds.8 mph93%29.86 "Hg5 mi
4:30 AM23 °FPassing clouds.7 mph93%29.83 "Hg5 mi
4:00 AM23 °FPassing clouds.8 mph93%29.83 "Hg5 mi
3:30 AM23 °FPassing clouds.8 mph93%29.83 "Hg5 mi
3:00 AM23 °FPassing clouds.9 mph93%29.83 "Hg5 mi
2:30 AM23 °FPassing clouds.7 mph93%29.80 "Hg5 mi
2:00 AM23 °FPassing clouds.9 mph86%29.80 "Hg5 mi
1:30 AM23 °FPassing clouds.9 mph86%29.83 "Hg5 mi
1:00 AM23 °FPassing clouds.6 mph86%29.83 "Hg5 mi
12:30 AM23 °FPassing clouds.7 mph86%29.83 "Hg5 mi
12:00 AM23 °FPassing clouds.7 mph86%29.83 "Hg5 mi
11:30 PM
Dec 27
21 °FLight snow. Passing clouds.5 mph93%29.83 "Hg4 mi
11:00 PM21 °FLight snow. Passing clouds.2 mph93%29.83 "Hg4 mi
10:30 PM21 °FLight snow. Passing clouds.2 mph86%29.83 "Hg4 mi
10:00 PM19 °FPassing clouds.3 mph93%29.83 "Hg4 mi
9:30 PM19 °FPassing clouds.5 mph86%29.83 "Hg4 mi
9:00 PM18 °FPassing clouds.6 mph93%29.83 "Hg4 mi
8:30 PM18 °FPassing clouds.6 mph86%29.83 "Hg4 mi
8:00 PM16 °FPassing clouds.6 mph93%29.83 "Hg4 mi
7:30 PM14 °FPassing clouds.6 mph92%29.83 "Hg4 mi
7:00 PM14 °FPassing clouds.6 mph92%29.83 "Hg4 mi
Weather by CustomWeather, © 2014

See weather overviewHow to use our weather pages